contact: severine.martini@mio.osupytheas.fr, dominique.lefevre@mio.osupytheas.fr
Project:EMSO Ligure-ouest http://www.emso-fr.org/EMSO-France
Sensor Microcat Sea-Bird SBE37 SMP,  Serial 57510 
DOI : "https://doi.org/10.17882/97948" 
Title:EMSO Ligure Ouest : Data Bathybot capteur Microcat - deploiement 2023-04-28
Datetime,Profondeur,Latitude,Longitude,Temperature,Conductivite,Pression,Salinite
time,m,degree_north,degree_east,degree_C,S/m,db,PSU 
2023-11-14T00:00:49,2420,42.8014,5.9826,13.2989,4.50944,2453.582,37.6411
2023-11-14T00:03:49,2420,42.8014,5.9826,13.2993,4.50938,2453.559,37.6401
2023-11-14T00:06:49,2420,42.8014,5.9826,13.3011,4.50955,2453.559,37.6399
2023-11-14T00:09:49,2420,42.8014,5.9826,13.3023,4.50958,2453.544,37.6391
2023-11-14T00:12:49,2420,42.8014,5.9826,13.3042,4.50964,2453.559,37.6377
2023-11-14T00:15:49,2420,42.8014,5.9826,13.3010,4.50965,2453.544,37.6410
2023-11-14T00:18:49,2420,42.8014,5.9826,13.3004,4.50977,2453.537,37.6427
2023-11-14T00:21:49,2420,42.8014,5.9826,13.3000,4.50971,2453.559,37.6425
2023-11-14T00:24:49,2420,42.8014,5.9826,13.3000,4.50971,2453.559,37.6425
2023-11-14T00:27:49,2420,42.8014,5.9826,13.3000,4.50967,2453.559,37.6421
2023-11-14T00:30:49,2420,42.8014,5.9826,13.2988,4.50969,2453.514,37.6436
2023-11-14T00:33:49,2420,42.8014,5.9826,13.2991,4.50970,2453.559,37.6433
2023-11-14T00:36:49,2420,42.8014,5.9826,13.3018,4.50970,2453.559,37.6407
2023-11-14T00:39:49,2420,42.8014,5.9826,13.3026,4.50979,2453.544,37.6407
2023-11-14T00:42:49,2420,42.8014,5.9826,13.2985,4.50971,2453.559,37.6440
2023-11-14T00:45:49,2420,42.8014,5.9826,13.2990,4.51027,2453.537,37.6488
2023-11-14T00:48:49,2420,42.8014,5.9826,13.2986,4.50972,2453.559,37.6439
2023-11-14T00:51:48,2420,42.8014,5.9826,13.3002,4.50973,2453.537,37.6425
2023-11-14T00:54:49,2420,42.8014,5.9826,13.2994,4.50974,2453.537,37.6434
2023-11-14T00:57:49,2420,42.8014,5.9826,13.3026,4.50989,2453.537,37.6417
2023-11-14T01:00:49,2420,42.8014,5.9826,13.2996,4.50988,2453.537,37.6445
2023-11-14T01:03:49,2420,42.8014,5.9826,13.2994,4.50981,2453.537,37.6440
2023-11-14T01:06:49,2420,42.8014,5.9826,13.3014,4.50975,2453.522,37.6416
2023-11-14T01:09:49,2420,42.8014,5.9826,13.2989,4.50978,2453.522,37.6442
2023-11-14T01:12:49,2420,42.8014,5.9826,13.3015,4.50977,2453.537,37.6417
2023-11-14T01:15:49,2420,42.8014,5.9826,13.2988,4.50981,2453.537,37.6447
2023-11-14T01:18:49,2420,42.8014,5.9826,13.3008,4.50981,2453.551,37.6427
2023-11-14T01:21:49,2420,42.8014,5.9826,13.2998,4.50985,2453.559,37.6440
2023-11-14T01:24:49,2420,42.8014,5.9826,13.2989,4.50983,2453.544,37.6447
2023-11-14T01:27:49,2420,42.8014,5.9826,13.2982,4.50998,2453.537,37.6468
2023-11-14T01:30:49,2420,42.8014,5.9826,13.2984,4.50983,2453.537,37.6452
2023-11-14T01:33:49,2420,42.8014,5.9826,13.2988,4.50993,2453.559,37.6457
2023-11-14T01:36:49,2420,42.8014,5.9826,13.2982,4.50982,2453.559,37.6453
2023-11-14T01:39:49,2420,42.8014,5.9826,13.2999,4.50979,2453.537,37.6434
2023-11-14T01:42:49,2420,42.8014,5.9826,13.3001,4.50977,2453.537,37.6429
2023-11-14T01:45:49,2420,42.8014,5.9826,13.2985,4.50978,2453.537,37.6447
2023-11-14T01:48:49,2420,42.8014,5.9826,13.3029,4.50980,2453.514,37.6406
2023-11-14T01:51:49,2420,42.8014,5.9826,13.2983,4.50978,2453.537,37.6448
2023-11-14T01:54:50,2420,42.8014,5.9826,13.3004,4.50981,2453.559,37.6431
2023-11-14T01:57:49,2420,42.8014,5.9826,13.2991,4.50966,2453.559,37.6430
2023-11-14T02:00:49,2420,42.8014,5.9826,13.2982,4.50960,2453.559,37.6433
2023-11-14T02:03:49,2420,42.8014,5.9826,13.2984,4.50938,2453.551,37.6409
2023-11-14T02:06:49,2420,42.8014,5.9826,13.2985,4.50914,2453.514,37.6387
2023-11-14T02:09:49,2420,42.8014,5.9826,13.3012,4.50867,2453.522,37.6315
2023-11-14T02:12:49,2420,42.8014,5.9826,13.3005,4.50846,2453.559,37.6302
2023-11-14T02:15:49,2420,42.8014,5.9826,13.3011,4.50838,2453.537,37.6290
2023-11-14T02:18:49,2420,42.8014,5.9826,13.2983,4.50823,2453.537,37.6302
2023-11-14T02:21:49,2420,42.8014,5.9826,13.2991,4.50822,2453.559,37.6294
2023-11-14T02:24:49,2420,42.8014,5.9826,13.2985,4.50805,2453.537,37.6284
2023-11-14T02:27:49,2420,42.8014,5.9826,13.2985,4.50792,2453.559,37.6272
2023-11-14T02:30:49,2420,42.8014,5.9826,13.2998,4.50793,2453.559,37.6260
2023-11-14T02:33:49,2420,42.8014,5.9826,13.3002,4.50777,2453.537,37.6240
2023-11-14T02:36:49,2420,42.8014,5.9826,13.2991,4.50766,2453.582,37.6241
2023-11-14T02:39:49,2420,42.8014,5.9826,13.3003,4.50747,2453.551,37.6212
2023-11-14T02:42:49,2420,42.8014,5.9826,13.2998,4.50722,2453.559,37.6193
2023-11-14T02:45:49,2420,42.8014,5.9826,13.3021,4.50702,2453.559,37.6151
2023-11-14T02:48:49,2420,42.8014,5.9826,13.3007,4.50703,2453.559,37.6166
2023-11-14T02:51:49,2420,42.8014,5.9826,13.2987,4.50669,2453.537,37.6153
2023-11-14T02:54:49,2420,42.8014,5.9826,13.3021,4.50654,2453.582,37.6106
2023-11-14T02:57:49,2420,42.8014,5.9826,13.2995,4.50618,2453.582,37.6098
2023-11-14T03:00:49,2420,42.8014,5.9826,13.3008,4.50593,2453.559,37.6062
2023-11-14T03:03:49,2420,42.8014,5.9826,13.2992,4.50560,2453.559,37.6046
2023-11-14T03:06:49,2420,42.8014,5.9826,13.3001,4.50532,2453.619,37.6011
2023-11-14T03:09:49,2420,42.8014,5.9826,13.3006,4.50506,2453.582,37.5982
2023-11-14T03:12:49,2420,42.8014,5.9826,13.2985,4.50479,2453.582,37.5977
2023-11-14T03:15:49,2420,42.8014,5.9826,13.2986,4.50436,2453.604,37.5935
2023-11-14T03:18:49,2420,42.8014,5.9826,13.2985,4.50394,2453.582,37.5897
2023-11-14T03:21:49,2420,42.8014,5.9826,13.2987,4.50371,2453.582,37.5874
2023-11-14T03:24:49,2420,42.8014,5.9826,13.3010,4.50225,2453.582,37.5714
2023-11-14T03:27:49,2420,42.8014,5.9826,13.3002,4.50052,2453.604,37.5558
2023-11-14T03:30:49,2420,42.8014,5.9826,13.2991,4.49982,2453.582,37.5504
2023-11-14T03:33:49,2420,42.8014,5.9826,13.2983,4.49925,2453.604,37.5458
2023-11-14T03:36:49,2420,42.8014,5.9826,13.2984,4.49912,2453.627,37.5444
2023-11-14T03:39:49,2420,42.8014,5.9826,13.3008,4.49938,2453.604,37.5445
2023-11-14T03:42:49,2420,42.8014,5.9826,13.2991,4.49940,2453.627,37.5463
2023-11-14T03:45:49,2420,42.8014,5.9826,13.2991,4.49949,2453.604,37.5472
2023-11-14T03:48:49,2420,42.8014,5.9826,13.2987,4.49959,2453.604,37.5486
2023-11-14T03:51:49,2420,42.8014,5.9826,13.3002,4.49963,2453.627,37.5475
2023-11-14T03:54:49,2420,42.8014,5.9826,13.3000,4.49962,2453.604,37.5476
2023-11-14T03:57:49,2420,42.8014,5.9826,13.2995,4.49968,2453.582,37.5487
2023-11-14T04:00:49,2420,42.8014,5.9826,13.2989,4.49968,2453.604,37.5492
2023-11-14T04:03:49,2420,42.8014,5.9826,13.2986,4.49973,2453.604,37.5500
2023-11-14T04:06:49,2420,42.8014,5.9826,13.3000,4.49974,2453.627,37.5487
2023-11-14T04:09:49,2420,42.8014,5.9826,13.2989,4.49976,2453.649,37.5500
2023-11-14T04:12:49,2420,42.8014,5.9826,13.2998,4.49980,2453.649,37.5495
2023-11-14T04:15:49,2420,42.8014,5.9826,13.2995,4.49982,2453.627,37.5499
2023-11-14T04:18:49,2420,42.8014,5.9826,13.2985,4.49982,2453.649,37.5509
2023-11-14T04:21:49,2420,42.8014,5.9826,13.2984,4.49981,2453.649,37.5509
2023-11-14T04:24:49,2420,42.8014,5.9826,13.2998,4.49982,2453.649,37.5496
2023-11-14T04:27:49,2420,42.8014,5.9826,13.2984,4.49987,2453.649,37.5514
2023-11-14T04:30:49,2420,42.8014,5.9826,13.2988,4.49986,2453.649,37.5510
2023-11-14T04:33:49,2420,42.8014,5.9826,13.2986,4.49975,2453.672,37.5501
2023-11-14T04:36:49,2420,42.8014,5.9826,13.2986,4.49946,2453.649,37.5474
2023-11-14T04:39:49,2420,42.8014,5.9826,13.2994,4.49934,2453.649,37.5455
2023-11-14T04:42:49,2420,42.8014,5.9826,13.2986,4.49960,2453.649,37.5488
2023-11-14T04:45:49,2420,42.8014,5.9826,13.2989,4.59920,2453.672,38.4870
2023-11-14T04:48:49,2420,42.8014,5.9826,13.2986,4.59921,2453.672,38.4874
2023-11-14T04:51:49,2420,42.8014,5.9826,13.2987,4.59922,2453.695,38.4874
2023-11-14T04:54:49,2420,42.8014,5.9826,13.2987,4.59921,2453.695,38.4873
2023-11-14T04:57:49,2420,42.8014,5.9826,13.2987,4.59920,2453.695,38.4872
2023-11-14T05:00:50,2420,42.8014,5.9826,13.2988,4.59921,2453.695,38.4872
2023-11-14T05:03:49,2420,42.8014,5.9826,13.2987,4.59920,2453.672,38.4872
2023-11-14T05:06:49,2420,42.8014,5.9826,13.2989,4.59921,2453.672,38.4871
2023-11-14T05:09:49,2420,42.8014,5.9826,13.2983,4.59923,2453.695,38.4878
2023-11-14T05:12:49,2420,42.8014,5.9826,13.2986,4.59921,2453.687,38.4874
2023-11-14T05:15:49,2420,42.8014,5.9826,13.2987,4.59922,2453.680,38.4874
2023-11-14T05:18:49,2420,42.8014,5.9826,13.2985,4.59921,2453.717,38.4875
2023-11-14T05:21:49,2420,42.8014,5.9826,13.2983,4.59922,2453.717,38.4877
2023-11-14T05:24:49,2420,42.8014,5.9826,13.2986,4.59922,2453.695,38.4874
2023-11-14T05:27:49,2420,42.8014,5.9826,13.2985,4.59921,2453.695,38.4875
2023-11-14T05:30:49,2420,42.8014,5.9826,13.2986,4.59923,2453.695,38.4875
2023-11-14T05:33:49,2420,42.8014,5.9826,13.2986,4.59921,2453.754,38.4874
2023-11-14T05:36:49,2420,42.8014,5.9826,13.2985,4.59920,2453.702,38.4874
2023-11-14T05:39:49,2420,42.8014,5.9826,13.2986,4.59921,2453.680,38.4874
2023-11-14T05:42:49,2420,42.8014,5.9826,13.2986,4.59923,2453.762,38.4875
2023-11-14T05:45:49,2420,42.8014,5.9826,13.2986,4.59922,2453.717,38.4875
2023-11-14T05:48:49,2420,42.8014,5.9826,13.2987,4.59922,2453.740,38.4873
2023-11-14T05:51:49,2420,42.8014,5.9826,13.2988,4.59922,2453.762,38.4872
2023-11-14T05:54:49,2420,42.8014,5.9826,13.2985,4.59922,2453.717,38.4876
2023-11-14T05:57:49,2420,42.8014,5.9826,13.2995,4.59923,2453.725,38.4866
2023-11-14T06:00:49,2420,42.8014,5.9826,13.2989,4.59923,2453.725,38.4873
2023-11-14T06:03:49,2420,42.8014,5.9826,13.2983,4.59923,2453.717,38.4878
2023-11-14T06:06:49,2420,42.8014,5.9826,13.2990,4.59922,2453.740,38.4870
2023-11-14T06:09:49,2420,42.8014,5.9826,13.2982,4.59922,2453.740,38.4879
2023-11-14T06:12:49,2420,42.8014,5.9826,13.2983,4.59921,2453.762,38.4877
2023-11-14T06:15:49,2420,42.8014,5.9826,13.2988,4.59921,2453.762,38.4872
2023-11-14T06:18:49,2420,42.8014,5.9826,13.2987,4.59921,2453.748,38.4873
2023-11-14T06:21:49,2420,42.8014,5.9826,13.2985,4.59921,2453.740,38.4875
2023-11-14T06:24:49,2420,42.8014,5.9826,13.2987,4.59922,2453.740,38.4873
2023-11-14T06:27:49,2420,42.8014,5.9826,13.2995,4.59921,2453.777,38.4865
2023-11-14T06:30:49,2420,42.8014,5.9826,13.2983,4.59921,2453.748,38.4877
2023-11-14T06:33:49,2420,42.8014,5.9826,13.2991,4.59922,2453.762,38.4869
2023-11-14T06:36:49,2420,42.8014,5.9826,13.2985,4.59922,2453.762,38.4875
2023-11-14T06:39:49,2420,42.8014,5.9826,13.2990,4.59920,2453.785,38.4869
2023-11-14T06:42:49,2420,42.8014,5.9826,13.2985,4.59921,2453.762,38.4875
2023-11-14T06:45:49,2420,42.8014,5.9826,13.2985,4.59921,2453.740,38.4875
2023-11-14T06:48:49,2420,42.8014,5.9826,13.2986,4.59922,2453.740,38.4875
2023-11-14T06:51:49,2420,42.8014,5.9826,13.2985,4.59920,2453.800,38.4874
2023-11-14T06:54:49,2420,42.8014,5.9826,13.2985,4.59920,2453.762,38.4873
2023-11-14T06:57:49,2420,42.8014,5.9826,13.2982,4.59920,2453.762,38.4877
2023-11-14T07:00:49,2420,42.8014,5.9826,13.2981,4.59923,2453.785,38.4880
2023-11-14T07:03:49,2420,42.8014,5.9826,13.2984,4.59921,2453.785,38.4876
2023-11-14T07:06:49,2420,42.8014,5.9826,13.2982,4.59922,2453.807,38.4878
2023-11-14T07:09:49,2420,42.8014,5.9826,13.2982,4.59920,2453.785,38.4877
2023-11-14T07:12:49,2420,42.8014,5.9826,13.2985,4.59921,2453.785,38.4875
2023-11-14T07:15:49,2420,42.8014,5.9826,13.2979,4.59921,2453.807,38.4880
2023-11-14T07:18:49,2420,42.8014,5.9826,13.2980,4.59922,2453.762,38.4880
2023-11-14T07:21:49,2420,42.8014,5.9826,13.2982,4.59923,2453.785,38.4880
2023-11-14T07:24:49,2420,42.8014,5.9826,13.2984,4.59921,2453.785,38.4876
2023-11-14T07:27:49,2420,42.8014,5.9826,13.2982,4.59922,2453.785,38.4878
2023-11-14T07:30:49,2420,42.8014,5.9826,13.2979,4.59920,2453.822,38.4879
2023-11-14T07:33:49,2420,42.8014,5.9826,13.2977,4.59921,2453.785,38.4883
2023-11-14T07:36:49,2420,42.8014,5.9826,13.2982,4.59921,2453.785,38.4878
2023-11-14T07:39:49,2420,42.8014,5.9826,13.2982,4.59922,2453.770,38.4878
2023-11-14T07:42:49,2420,42.8014,5.9826,13.2979,4.59920,2453.800,38.4879
2023-11-14T07:45:49,2420,42.8014,5.9826,13.2982,4.59920,2453.822,38.4877
2023-11-14T07:48:49,2420,42.8014,5.9826,13.2983,4.59923,2453.807,38.4878
2023-11-14T07:51:49,2420,42.8014,5.9826,13.2985,4.59923,2453.785,38.4876
2023-11-14T07:54:49,2420,42.8014,5.9826,13.2979,4.59920,2453.785,38.4880
2023-11-14T07:57:49,2420,42.8014,5.9826,13.2983,4.59923,2453.762,38.4878
2023-11-14T08:00:49,2420,42.8014,5.9826,13.2982,4.59921,2453.785,38.4878
2023-11-14T08:03:49,2420,42.8014,5.9826,13.2986,4.59923,2453.807,38.4875
2023-11-14T08:06:49,2420,42.8014,5.9826,13.2983,4.59921,2453.807,38.4876
2023-11-14T08:09:49,2420,42.8014,5.9826,13.2980,4.59923,2453.830,38.4881
2023-11-14T08:12:49,2420,42.8014,5.9826,13.2979,4.59923,2453.830,38.4881
2023-11-14T08:15:49,2420,42.8014,5.9826,13.2979,4.59921,2453.807,38.4881
2023-11-14T08:18:49,2420,42.8014,5.9826,13.2982,4.59924,2453.822,38.4881
2023-11-14T08:21:50,2420,42.8014,5.9826,13.2982,4.59920,2453.762,38.4877
2023-11-14T08:24:49,2420,42.8014,5.9826,13.2979,4.59925,2453.822,38.4883
2023-11-14T08:27:49,2420,42.8014,5.9826,13.2977,4.59924,2453.725,38.4886
2023-11-14T08:30:49,2420,42.8014,5.9826,13.2982,4.59925,2453.762,38.4881
2023-11-14T08:33:49,2420,42.8014,5.9826,13.2980,4.59925,2453.770,38.4883
2023-11-14T08:36:49,2420,42.8014,5.9826,13.2982,4.59925,2453.770,38.4882
2023-11-14T08:39:49,2420,42.8014,5.9826,13.2982,4.59924,2453.748,38.4881
2023-11-14T08:42:49,2420,42.8014,5.9826,13.2982,4.59926,2453.793,38.4882
2023-11-14T08:45:49,2420,42.8014,5.9826,13.2982,4.59921,2453.785,38.4878
2023-11-14T08:48:49,2420,42.8014,5.9826,13.2982,4.59925,2453.785,38.4881
2023-11-14T08:51:49,2420,42.8014,5.9826,13.2982,4.59922,2453.785,38.4878
2023-11-14T08:54:49,2420,42.8014,5.9826,13.2986,4.59932,2453.807,38.4884
2023-11-14T08:57:49,2420,42.8014,5.9826,13.2983,4.59924,2453.785,38.4879
2023-11-14T09:00:49,2420,42.8014,5.9826,13.2982,4.59923,2453.762,38.4879
2023-11-14T09:03:49,2420,42.8014,5.9826,13.2985,4.59922,2453.785,38.4876
2023-11-14T09:06:49,2420,42.8014,5.9826,13.2981,4.59923,2453.762,38.4880
2023-11-14T09:09:49,2420,42.8014,5.9826,13.2983,4.59926,2453.762,38.4881
2023-11-14T09:12:49,2420,42.8014,5.9826,13.2982,4.59923,2453.822,38.4879
2023-11-14T09:15:49,2420,42.8014,5.9826,13.2985,4.59925,2453.762,38.4879
2023-11-14T09:18:49,2420,42.8014,5.9826,13.2979,4.59923,2453.762,38.4883
2023-11-14T09:21:49,2420,42.8014,5.9826,13.2979,4.59923,2453.770,38.4883
2023-11-14T09:24:49,2420,42.8014,5.9826,13.2983,4.59925,2453.762,38.4880
2023-11-14T09:27:49,2420,42.8014,5.9826,13.2981,4.59923,2453.777,38.4881
2023-11-14T09:30:50,2420,42.8014,5.9826,13.2981,4.59922,2453.785,38.4879
2023-11-14T09:33:49,2420,42.8014,5.9826,13.2982,4.59928,2453.785,38.4885
2023-11-14T09:36:49,2420,42.8014,5.9826,13.2984,4.59926,2453.748,38.4881
2023-11-14T09:39:49,2420,42.8014,5.9826,13.2982,4.59926,2453.785,38.4882
2023-11-14T09:42:49,2420,42.8014,5.9826,13.2979,4.59921,2453.717,38.4880
2023-11-14T09:45:49,2420,42.8014,5.9826,13.2982,4.59925,2453.762,38.4882
2023-11-14T09:48:49,2420,42.8014,5.9826,13.2982,4.59927,2453.762,38.4883
2023-11-14T09:51:49,2420,42.8014,5.9826,13.2981,4.59928,2453.740,38.4885
2023-11-14T09:54:49,2420,42.8014,5.9826,13.2983,4.59923,2453.740,38.4879
2023-11-14T09:57:49,2420,42.8014,5.9826,13.2982,4.59923,2453.754,38.4880
2023-11-14T10:00:49,2420,42.8014,5.9826,13.2982,4.59926,2453.717,38.4883
2023-11-14T10:03:50,2420,42.8014,5.9826,13.2981,4.59925,2453.740,38.4882
2023-11-14T10:06:49,2420,42.8014,5.9826,13.2987,4.59927,2453.740,38.4878
2023-11-14T10:09:49,2420,42.8014,5.9826,13.2980,4.59923,2453.740,38.4882
2023-11-14T10:12:49,2420,42.8014,5.9826,13.2982,4.59926,2453.740,38.4883
2023-11-14T10:15:49,2420,42.8014,5.9826,13.2983,4.59929,2453.717,38.4884
2023-11-14T10:18:49,2420,42.8014,5.9826,13.2988,4.59931,2453.695,38.4882
2023-11-14T10:21:49,2420,42.8014,5.9826,13.2982,4.59927,2453.740,38.4884
2023-11-14T10:24:49,2420,42.8014,5.9826,13.2982,4.59923,2453.702,38.4879
2023-11-14T10:27:49,2420,42.8014,5.9826,13.2978,4.59925,2453.695,38.4885
2023-11-14T10:30:50,2420,42.8014,5.9826,13.2984,4.59923,2453.740,38.4877
2023-11-14T10:33:49,2420,42.8014,5.9826,13.2985,4.59928,2453.717,38.4881
2023-11-14T10:36:49,2420,42.8014,5.9826,13.2982,4.59923,2453.717,38.4880
2023-11-14T10:39:49,2420,42.8014,5.9826,13.2986,4.59928,2453.717,38.4880
2023-11-14T10:42:49,2420,42.8014,5.9826,13.2985,4.59930,2453.695,38.4883
2023-11-14T10:45:49,2420,42.8014,5.9826,13.2979,4.59928,2453.725,38.4887
2023-11-14T10:48:49,2420,42.8014,5.9826,13.2983,4.59926,2453.717,38.4881
2023-11-14T10:51:49,2420,42.8014,5.9826,13.2982,4.59931,2453.717,38.4887
2023-11-14T10:54:50,2420,42.8014,5.9826,13.2982,4.59942,2453.680,38.4898
2023-11-14T10:57:49,2420,42.8014,5.9826,13.2982,4.59929,2453.709,38.4886
2023-11-14T11:00:49,2420,42.8014,5.9826,13.2981,4.59933,2453.717,38.4890
2023-11-14T11:03:49,2420,42.8014,5.9826,13.2984,4.59923,2453.695,38.4878
2023-11-14T11:06:49,2420,42.8014,5.9826,13.2986,4.59923,2453.672,38.4876
2023-11-14T11:09:49,2420,42.8014,5.9826,13.2983,4.59930,2453.672,38.4885
2023-11-14T11:12:49,2420,42.8014,5.9826,13.2983,4.59930,2453.657,38.4885
2023-11-14T11:15:49,2420,42.8014,5.9826,13.2983,4.59926,2453.695,38.4882
2023-11-14T11:18:49,2420,42.8014,5.9826,13.2982,4.59930,2453.672,38.4887
2023-11-14T11:21:49,2420,42.8014,5.9826,13.2978,4.59930,2453.649,38.4890
2023-11-14T11:24:49,2420,42.8014,5.9826,13.2982,4.59928,2453.672,38.4884
2023-11-14T11:27:49,2420,42.8014,5.9826,13.2982,4.59929,2453.695,38.4886
2023-11-14T11:30:49,2420,42.8014,5.9826,13.2977,4.59927,2453.680,38.4889
2023-11-14T11:33:49,2420,42.8014,5.9826,13.2979,4.59926,2453.709,38.4885
2023-11-14T11:36:49,2420,42.8014,5.9826,13.2983,4.59927,2453.635,38.4883
2023-11-14T11:39:49,2420,42.8014,5.9826,13.2982,4.59931,2453.672,38.4888
2023-11-14T11:42:49,2420,42.8014,5.9826,13.2985,4.59930,2453.695,38.4883
2023-11-14T11:45:49,2420,42.8014,5.9826,13.2981,4.59931,2453.657,38.4888
2023-11-14T11:48:49,2420,42.8014,5.9826,13.2978,4.59928,2453.672,38.4889
2023-11-14T11:51:50,2420,42.8014,5.9826,13.2981,4.59926,2453.657,38.4883
2023-11-14T11:54:50,2420,42.8014,5.9826,13.2979,4.59928,2453.649,38.4888
2023-11-14T11:57:49,2420,42.8014,5.9826,13.2982,4.59923,2453.649,38.4880
2023-11-14T12:00:49,2420,42.8014,5.9826,13.2982,4.59931,2453.649,38.4888
2023-11-14T12:03:49,2420,42.8014,5.9826,13.2981,4.59929,2453.657,38.4887
2023-11-14T12:06:49,2420,42.8014,5.9826,13.2985,4.59924,2453.649,38.4878
2023-11-14T12:09:49,2420,42.8014,5.9826,13.2984,4.59925,2453.649,38.4880
2023-11-14T12:12:49,2420,42.8014,5.9826,13.2984,4.59925,2453.641,38.4880
2023-11-14T12:15:49,2420,42.8014,5.9826,13.2977,4.59937,2453.649,38.4899
2023-11-14T12:18:49,2420,42.8014,5.9826,13.2982,4.59928,2453.649,38.4885
2023-11-14T12:21:50,2420,42.8014,5.9826,13.2980,4.59931,2453.664,38.4889
2023-11-14T12:24:49,2420,42.8014,5.9826,13.2982,4.59925,2453.649,38.4882
2023-11-14T12:27:49,2420,42.8014,5.9826,13.2981,4.59934,2453.641,38.4892
2023-11-14T12:30:49,2420,42.8014,5.9826,13.2983,4.59931,2453.627,38.4886
2023-11-14T12:33:49,2420,42.8014,5.9826,13.2984,4.59927,2453.649,38.4882
2023-11-14T12:36:49,2420,42.8014,5.9826,13.2978,4.59928,2453.627,38.4889
2023-11-14T12:39:49,2420,42.8014,5.9826,13.2982,4.59932,2453.604,38.4889
2023-11-14T12:42:49,2420,42.8014,5.9826,13.2983,4.59927,2453.627,38.4883
2023-11-14T12:45:49,2420,42.8014,5.9826,13.2982,4.59940,2453.627,38.4896
2023-11-14T12:48:49,2420,42.8014,5.9826,13.2991,4.59928,2453.627,38.4876
2023-11-14T12:51:49,2420,42.8014,5.9826,13.2985,4.59924,2453.627,38.4878
2023-11-14T12:54:49,2420,42.8014,5.9826,13.2981,4.59931,2453.649,38.4889
2023-11-14T12:57:49,2420,42.8014,5.9826,13.2984,4.59931,2453.627,38.4886
2023-11-14T13:00:50,2420,42.8014,5.9826,13.2982,4.59937,2453.604,38.4894
2023-11-14T13:03:49,2420,42.8014,5.9826,13.2985,4.59931,2453.612,38.4885
2023-11-14T13:06:49,2420,42.8014,5.9826,13.2982,4.59937,2453.604,38.4893
2023-11-14T13:09:49,2420,42.8014,5.9826,13.2982,4.59931,2453.649,38.4888
2023-11-14T13:12:49,2420,42.8014,5.9826,13.2980,4.59932,2453.619,38.4891
2023-11-14T13:15:49,2420,42.8014,5.9826,13.2985,4.59934,2453.627,38.4888
2023-11-14T13:18:49,2420,42.8014,5.9826,13.2984,4.59933,2453.641,38.4887
2023-11-14T13:21:49,2420,42.8014,5.9826,13.2979,4.59942,2453.627,38.4902
2023-11-14T13:24:49,2420,42.8014,5.9826,13.2979,4.59926,2453.619,38.4885
2023-11-14T13:27:49,2420,42.8014,5.9826,13.2981,4.59928,2453.627,38.4886
2023-11-14T13:30:49,2420,42.8014,5.9826,13.2982,4.59933,2453.604,38.4890
2023-11-14T13:33:49,2420,42.8014,5.9826,13.2981,4.59929,2453.604,38.4887
2023-11-14T13:36:49,2420,42.8014,5.9826,13.2982,4.59924,2453.567,38.4882
2023-11-14T13:39:49,2420,42.8014,5.9826,13.2981,4.59940,2453.590,38.4897
2023-11-14T13:42:49,2420,42.8014,5.9826,13.2984,4.59921,2453.590,38.4876
2023-11-14T13:45:49,2420,42.8014,5.9826,13.2980,4.59922,2453.604,38.4881
2023-11-14T13:48:49,2420,42.8014,5.9826,13.2980,4.59931,2453.604,38.4890
2023-11-14T13:51:49,2420,42.8014,5.9826,13.2984,4.59923,2453.604,38.4878
2023-11-14T13:54:49,2420,42.8014,5.9826,13.2980,4.59921,2453.604,38.4880
2023-11-14T13:57:49,2420,42.8014,5.9826,13.2982,4.59921,2453.604,38.4878
2023-11-14T14:00:49,2420,42.8014,5.9826,13.2985,4.59920,2453.590,38.4875
2023-11-14T14:03:49,2420,42.8014,5.9826,13.2986,4.59921,2453.604,38.4874
2023-11-14T14:06:49,2420,42.8014,5.9826,13.2985,4.59920,2453.627,38.4875
2023-11-14T14:09:49,2420,42.8014,5.9826,13.2980,4.59920,2453.604,38.4879
2023-11-14T14:12:49,2420,42.8014,5.9826,13.2983,4.59921,2453.582,38.4877
2023-11-14T14:15:49,2420,42.8014,5.9826,13.2986,4.59921,2453.604,38.4874
2023-11-14T14:18:49,2420,42.8014,5.9826,13.2979,4.59920,2453.582,38.4881
2023-11-14T14:21:49,2420,42.8014,5.9826,13.2982,4.59920,2453.604,38.4877
2023-11-14T14:24:49,2420,42.8014,5.9826,13.2988,4.59918,2453.590,38.4869
2023-11-14T14:27:49,2420,42.8014,5.9826,13.2979,4.59920,2453.604,38.4881
2023-11-14T14:30:49,2420,42.8014,5.9826,13.2993,4.59920,2453.604,38.4866
2023-11-14T14:33:49,2420,42.8014,5.9826,13.2980,4.59919,2453.596,38.4878
2023-11-14T14:36:49,2420,42.8014,5.9826,13.2988,4.59920,2453.590,38.4871
2023-11-14T14:39:49,2420,42.8014,5.9826,13.2982,4.59920,2453.582,38.4877
2023-11-14T14:42:49,2420,42.8014,5.9826,13.2989,4.59922,2453.604,38.4872
2023-11-14T14:45:49,2420,42.8014,5.9826,13.2984,4.59919,2453.582,38.4874
2023-11-14T14:48:49,2420,42.8014,5.9826,13.2987,4.59920,2453.604,38.4872
2023-11-14T14:51:49,2420,42.8014,5.9826,13.2981,4.59919,2453.627,38.4877
2023-11-14T14:54:50,2420,42.8014,5.9826,13.2989,4.59920,2453.582,38.4870
2023-11-14T14:57:49,2420,42.8014,5.9826,13.3002,4.59920,2453.627,38.4857
2023-11-14T15:00:49,2420,42.8014,5.9826,13.3010,4.59926,2453.596,38.4856
2023-11-14T15:03:50,2420,42.8014,5.9826,13.2993,4.59929,2453.604,38.4875
2023-11-14T15:06:49,2420,42.8014,5.9826,13.3019,4.59933,2453.582,38.4853
2023-11-14T15:09:49,2420,42.8014,5.9826,13.2981,4.59927,2453.582,38.4885
2023-11-14T15:12:49,2420,42.8014,5.9826,13.2996,4.59923,2453.604,38.4866
2023-11-14T15:15:49,2420,42.8014,5.9826,13.2991,4.59922,2453.567,38.4870
2023-11-14T15:18:49,2420,42.8014,5.9826,13.2991,4.59926,2453.619,38.4874
2023-11-14T15:21:49,2420,42.8014,5.9826,13.3041,4.59940,2453.590,38.4838
2023-11-14T15:24:49,2420,42.8014,5.9826,13.2980,4.59923,2453.582,38.4882
2023-11-14T15:27:49,2420,42.8014,5.9826,13.2983,4.59926,2453.604,38.4881
2023-11-14T15:30:50,2420,42.8014,5.9826,13.2993,4.59923,2453.619,38.4869
2023-11-14T15:33:49,2420,42.8014,5.9826,13.2989,4.59925,2453.627,38.4875
2023-11-14T15:36:49,2420,42.8014,5.9826,13.3008,4.59919,2453.627,38.4851
2023-11-14T15:39:49,2420,42.8014,5.9826,13.2983,4.59919,2453.619,38.4875
2023-11-14T15:42:49,2420,42.8014,5.9826,13.2995,4.59936,2453.582,38.4879
2023-11-14T15:45:49,2420,42.8014,5.9826,13.3000,4.59919,2453.604,38.4858
2023-11-14T15:48:50,2420,42.8014,5.9826,13.3012,4.59920,2453.590,38.4847
2023-11-14T15:51:49,2420,42.8014,5.9826,13.2999,4.59933,2453.627,38.4872
2023-11-14T15:54:49,2420,42.8014,5.9826,13.2999,4.59926,2453.582,38.4866
2023-11-14T15:57:49,2420,42.8014,5.9826,13.3004,4.59926,2453.627,38.4861
2023-11-14T16:00:49,2420,42.8014,5.9826,13.2988,4.59920,2453.590,38.4871
2023-11-14T16:03:49,2420,42.8014,5.9826,13.3000,4.59922,2453.627,38.4862